Regional Weather Roundup
Issued by NWS Upton, NY

Current Version | Previous Version | Graphics & Text | Print | Product List | Glossary Off
Versions: 1 2 3 4 5 6 7 8 9 10 11 12 13 14 15 16 17 18 19 20 21 22 23 24 25 26 27

000
ASUS41 KOKX 161009
RWROKX

REGIONAL WEATHER ROUNDUP
NATIONAL WEATHER SERVICE NEW YORK NY
600 AM EDT WED AUG 16 2017

NOTE: "FAIR" INDICATES FEW OR NO CLOUDS BELOW 12,000 FEET WITH NO
SIGNIFICANT WEATHER AND/OR OBSTRUCTIONS TO VISIBILITY.

NYZ071-072-176-178-NJZ106-104-161100-
NEW YORK CITY METRO AREA

CITY           SKY/WX    TMP DP  RH WIND       PRES   REMARKS
Central Park   PTCLDY    70  68  93 W5        29.97R FOG
Bronx Bot Gard   N/A     70  66  88 NW2       29.95S
LaGuardia APRT PTCLDY    71  69  93 NW8       29.93R
Kennedy INTL   MOCLDY    71  71 100 W7        29.94R
Breezy Point     N/A     68 N/A N/A NW6         N/A
Newark/Liberty MOCLDY    70  68  93 VRB5      29.94R
Teterboro      CLEAR     70  67  90 CALM      29.93R FOG
$$

NYZ177-179-078>081-161100-
LONG ISLAND NEW YORK

CITY           SKY/WX    TMP DP  RH WIND       PRES   REMARKS
Jones Beach      N/A     70 N/A N/A NW13        N/A
Matinecock PT    N/A     72 N/A N/A W8          N/A
Farmingdale    CLOUDY    70  70 100 NW3       29.94R FOG
MacArthur/ISP  FOG       70  70 100 VRB3      29.93R VSB 1/2
Shirley        MOCLDY    71  70  96 W5        29.93R
Mt Sinai Harb    N/A    N/A N/A N/A CALM        N/A
Westhampton    PTCLDY    63  61  93 CALM      29.94R FOG
East Hampton   FAIR      63  62  98 CALM      29.92R
Montauk          N/A     69  68  96 NW3       29.93R
$$

NYZ052-065-067-161100-
HUDSON VALLEY

CITY           SKY/WX    TMP DP  RH WIND       PRES   REMARKS
White Plains   MOCLDY    69  67  93 NW6       29.94R
Larchmont Harb   N/A     70 N/A N/A W3          N/A
Croton On Huds   N/A     68 N/A N/A NE3         N/A
Newburgh       CLEAR     64  64 100 CALM      29.97R FOG
Montgomery     LGT RAIN  62  61  96 CALM      29.96R FOG
Poughkeepsie   PTCLDY    64  63  96 CALM      29.95R
Albany         MOCLDY    63  60  90 CALM      29.97R
$$

NJZ001-105-106-008-010-013-015-019>022-104-161100-
NEW JERSEY

CITY           SKY/WX    TMP DP  RH WIND       PRES   REMARKS
Newark/Liberty MOCLDY    70  68  93 VRB5      29.94R
Teterboro      CLEAR     70  67  90 CALM      29.93R FOG
Caldwell       CLEAR     67  67 100 CALM      29.95R FOG
Somerville     CLOUDY    70  70 100 CALM      29.93R FOG
Linden         CLOUDY    71  70  96 CALM      29.93R FOG
Perth Amboy      N/A     70 N/A N/A NW8         N/A
Sussex         FOG       65  65 100 CALM      29.97R VSB 1/2
Andover          N/A     66  66 100 CALM      29.98R
Trenton        FOG       69  69 100 NW5       29.95R VSB 1/2
Millville      FOG       71  71 100 CALM      29.94R VSB 1/4
Atlantic City  FOG       71  71 100 NW5       29.94R VSB 1/4
Wrightstown    CLOUDY    70  70  99 NW5       29.93R
Toms River     CLOUDY    71  70  96 NW6       29.95R
Belmar         CLOUDY    70  69  97 W7        29.95R FOG
$$

PAZ047>061-062-071-161100-
EASTERN PENNSYLVANIA

CITY           SKY/WX    TMP DP  RH WIND       PRES   REMARKS
Philadelphia   PTCLDY    72  69  90 CALM      29.96R FOG
Allentown      FOG       67  65  93 CALM      29.97R VSB 1/4
Scranton       FOG       64  63  96 CALM      30.01R VSB 1/4
$$

CTZ002-004>006-009-010-012-RIZ004-006-007-MAZ004-011-015-161100-
SOUTHERN NEW ENGLAND
 IN CT

CITY           SKY/WX    TMP DP  RH WIND       PRES   REMARKS
Bradley INTL   PTCLDY    63  63 100 CALM      29.94R FOG
Hartford       PTCLDY    67  66  97 CALM      29.93R
Danbury        FOG       67  66  97 CALM      29.97R VSB 1
Wtrbury/Oxford PTCLDY    67  66  97 NW3       29.96R FOG
Norwalk Harbor   N/A     70 N/A N/A W6          N/A
Bridgeport     CLEAR     70  67  90 CALM      29.93R
Meriden        PTCLDY    66  65  96 CALM      29.93R
New Haven      CLEAR     71  68  90 CALM      29.93R
Chester        NOT AVBL
Groton         PTCLDY    65  64  97 CALM      29.92R FOG
Wilimantic     MOCLDY    66  66 100 CALM      29.93R FOG

 IN RI

CITY           SKY/WX    TMP DP  RH WIND       PRES   REMARKS
Providence     MOCLDY    67  67 100 W6        29.91R
Block Island   CLEAR     67  67 100 W6        29.92R
Westerly       CLEAR     65  64  97 CALM      29.92R FOG
 IN MA

CITY           SKY/WX    TMP DP  RH WIND       PRES   REMARKS
Boston         PTCLDY    67  66  97 SW8       29.90R
Worcester      CLOUDY    64  62  93 W6        29.94R
Westfield      FOG       63  63 100 SW5       29.94R VSB 1/4
Provincetown   CLEAR     66  65  96 SW7       29.90R FOG
Nantucket      CLOUDY    67  67 100 W7        29.90R
$$

ANZ330-335-338-340-345-350-353-355-161100-
COASTAL MARINE OBSERVATIONS


STATION/POSITION TIME  SKY/WX   TEMP    WIND        PRES    VSBY  WAVE
                                AIR SEA DIR/SP/G                  HT/PER
                 (UTC)          (F)     (DEG/KT/KT) (MB)    (MI)  (FT/S)
NY HARB ENTRANCE 0850            72 75  270/  8/ 10 1012.3          6/12
GREAT SOUTH BAY  0930            71 76  310/  6/  8   N/A
23 SSW MONTAUK P 0850            71 71              1012.8          5/13
15 E BARNEGAT LI 0930               76                N/A           6/13
HUDSON CANYON    0850            72 74  350/  6/  8 1011.5          7/13
KINGS POINT      0936            71 73  330/  4/  6 1013.4
EXECUTION ROCKS  NOT AVBL
WESTERN LI SOUND NOT AVBL
CENTRAL LI SOUND NOT AVBL
EASTERN LI SOUND NOT AVBL
ROBBINS REEF     0948                   280/  6/  7 1014.2
$$


>>>>>>>>>>>>>>>>>>>>>>>>>>>> KEY <<<<<<<<<<<<<<<<<<<<<<<<<<<
>                                                          <
>     SKY/WX - Sky Condition/Present Weather               <
>     TMP    - Temperature in Fahrenheit                   <
>     DP     - Dew Point in Fahrenheit                     <
>     RH     - Relative Humidity in Percent                <
>     WIND   - Direction (from) and Speed in MPH           <
>     PRES   - Mean Sea Level Pressure (inches of Hg)      <
>     WCI    - Wind Chill Index                            <
>     VSB    - VISIBILITY IN MILES                         <
>     HX     - HEAT INDEX                                  <
>     TC     - TEMPERATURE IN CELSIUS                      <
>     VRB    - VARIABLE WIND DIRECTION                     <
>                                                          <
>>>>>>>>>>>>>>>>>>>>>>>>>>>> KEY <<<<<<<<<<<<<<<<<<<<<<<<<<<




USA.gov is the U.S. government's official web portal to all federal, state and local government web resources and services.